Volver al catálogo

STARLINK-35380

ActivoComunicacionesVLEO
NORAD 65905·PAYLOAD·🇺🇸 United States

Lanzado Oct 7, 2025 desde Cape Canaveral Space Force Station

Loading…

Próximos Pases (próximas 24 horas)

TLE

ActualizadoSource: CelesTrak SupGP

Época: Sep 15, 2026, 03:21 UTC

1 65905C 25224Z   26258.14006944 -.00004082  00000+0 -12070-3 0  2587
2 65905  53.1583 210.4596 0001677  71.6817 256.7152 15.34370584    19

Sigue STARLINK-35380 en tiempo real con AllMySat

Download on the App Store